GLD166 SJRG-SSBN

Flight info

Callsign GLD166
Flight time 0h 55m
Altitude 5500
Route 3126S05201W 3106S05131W 3026S05110W
Aircraft C182/M-SDFGIRY/S

Departure

Time 2026-05-06 19:30
Airport Rio Grande Regional Airport (SJRG)

Arrival

Time 2026-05-06 20:25
Airport Belém Novo Airport (SSBN)
Time Latitude Longitude Altitude Speed Heading
2026-05-06 19:25 -32.08234 -52.16332 29 ft 0 kts 150°
2026-05-06 19:26 -32.08238 -52.16335 29 ft 3 kts 274°
2026-05-06 19:26 -32.08217 -52.16333 29 ft 5 kts
2026-05-06 19:27 -32.08175 -52.16353 31 ft 7 kts 321°
2026-05-06 19:27 -32.08156 -52.16372 33 ft 0 kts 320°
2026-05-06 19:27 -32.08154 -52.16374 33 ft 3 kts 320°
2026-05-06 19:28 -32.08118 -52.16408 35 ft 11 kts 319°
2026-05-06 19:28 -32.08128 -52.16521 33 ft 21 kts 215°
2026-05-06 19:28 -32.08265 -52.16681 31 ft 33 kts 227°
2026-05-06 19:28 -32.08407 -52.16840 28 ft 11 kts 152°
2026-05-06 19:29 -32.08310 -52.16707 31 ft 45 kts 44°
2026-05-06 19:29 -32.07986 -52.16357 62 ft 79 kts 42°
2026-05-06 19:29 -32.07572 -52.15919 412 ft 74 kts 44°
2026-05-06 19:29 -32.07014 -52.15772 563 ft 103 kts 356°
2026-05-06 19:30 -32.06514 -52.16347 972 ft 102 kts 292°
2026-05-06 19:30 -32.06543 -52.17161 1349 ft 105 kts 275°
2026-05-06 19:30 -32.06588 -52.18104 1467 ft 119 kts 287°
2026-05-06 19:30 -32.06041 -52.18756 1585 ft 118 kts 339°
2026-05-06 19:31 -32.05278 -52.19153 1748 ft 121 kts 337°
2026-05-06 19:31 -32.04507 -52.19559 1900 ft 122 kts 337°
2026-05-06 19:31 -32.02818 -52.19789 2194 ft 125 kts 354°
2026-05-06 19:32 -32.01940 -52.19833 2348 ft 128 kts 354°
2026-05-06 19:32 -32.01040 -52.19861 2481 ft 129 kts 354°
2026-05-06 19:32 -32.00143 -52.19873 2636 ft 129 kts 354°
2026-05-06 19:32 -31.99248 -52.19873 2779 ft 129 kts 355°
2026-05-06 19:33 -31.98353 -52.19645 2911 ft 131 kts
2026-05-06 19:33 -31.97452 -52.19478 3058 ft 131 kts
2026-05-06 19:33 -31.96547 -52.19307 3203 ft 132 kts
2026-05-06 19:33 -31.95650 -52.19131 3346 ft 132 kts
2026-05-06 19:34 -31.94745 -52.18943 3480 ft 132 kts
2026-05-06 19:34 -31.93844 -52.18749 3631 ft 132 kts
2026-05-06 19:34 -31.92946 -52.18552 3778 ft 131 kts
2026-05-06 19:34 -31.92052 -52.18356 3917 ft 130 kts
2026-05-06 19:35 -31.91163 -52.18156 4062 ft 130 kts
2026-05-06 19:35 -31.90272 -52.17948 4206 ft 130 kts
2026-05-06 19:35 -31.89382 -52.17738 4353 ft 130 kts
2026-05-06 19:35 -31.88498 -52.17528 4495 ft 130 kts
2026-05-06 19:36 -31.87613 -52.17315 4651 ft 130 kts
2026-05-06 19:36 -31.86729 -52.17101 4796 ft 130 kts
2026-05-06 19:36 -31.85845 -52.16883 4932 ft 130 kts
2026-05-06 19:36 -31.84965 -52.16659 5076 ft 129 kts
2026-05-06 19:37 -31.84088 -52.16432 5223 ft 128 kts
2026-05-06 19:37 -31.83218 -52.16200 5368 ft 128 kts
2026-05-06 19:37 -31.82367 -52.15968 5508 ft 127 kts
2026-05-06 19:37 -31.81789 -52.15810 5607 ft 126 kts
2026-05-06 19:38 -31.80655 -52.15492 5797 ft 124 kts
2026-05-06 19:38 -31.79831 -52.15254 5936 ft 123 kts
2026-05-06 19:38 -31.79008 -52.15010 6086 ft 121 kts
2026-05-06 19:38 -31.78194 -52.14769 6233 ft 120 kts
2026-05-06 19:39 -31.77389 -52.14529 6372 ft 119 kts
2026-05-06 19:39 -31.76538 -52.14286 6256 ft 135 kts
2026-05-06 19:39 -31.75568 -52.14021 5991 ft 151 kts
2026-05-06 19:39 -31.74518 -52.13688 5693 ft 160 kts
2026-05-06 19:40 -31.73423 -52.13355 5393 ft 165 kts
2026-05-06 19:40 -31.72347 -52.13026 5378 ft 155 kts
2026-05-06 19:40 -31.71329 -52.12629 5376 ft 153 kts 10°
2026-05-06 19:40 -31.70332 -52.12214 5373 ft 151 kts 10°
2026-05-06 19:41 -31.69340 -52.11802 5375 ft 151 kts 10°
2026-05-06 19:41 -31.68349 -52.11393 5372 ft 151 kts 10°
2026-05-06 19:41 -31.67356 -52.10983 5372 ft 151 kts 10°
2026-05-06 19:41 -31.66368 -52.10574 5371 ft 150 kts 10°
2026-05-06 19:42 -31.65393 -52.10172 5377 ft 151 kts 10°
2026-05-06 19:42 -31.64403 -52.09766 5373 ft 150 kts
2026-05-06 19:42 -31.63416 -52.09360 5373 ft 151 kts
2026-05-06 19:42 -31.62428 -52.08955 5374 ft 150 kts
2026-05-06 19:43 -31.61442 -52.08551 5373 ft 150 kts 10°
2026-05-06 19:43 -31.60455 -52.08148 5371 ft 150 kts
2026-05-06 19:43 -31.59468 -52.07744 5369 ft 150 kts
2026-05-06 19:43 -31.58484 -52.07340 5372 ft 150 kts
2026-05-06 19:44 -31.57502 -52.06938 5371 ft 149 kts
2026-05-06 19:44 -31.56522 -52.06538 5370 ft 149 kts
2026-05-06 19:44 -31.55541 -52.06139 5370 ft 149 kts
2026-05-06 19:44 -31.54556 -52.05739 5369 ft 150 kts 10°
2026-05-06 19:45 -31.53566 -52.05341 5372 ft 150 kts
2026-05-06 19:45 -31.52578 -52.04947 5372 ft 150 kts
2026-05-06 19:45 -31.51587 -52.04550 5371 ft 150 kts
2026-05-06 19:45 -31.50612 -52.04160 5372 ft 150 kts
2026-05-06 19:46 -31.49621 -52.03767 5369 ft 150 kts
2026-05-06 19:46 -31.48629 -52.03373 5370 ft 151 kts
2026-05-06 19:46 -31.47633 -52.02976 5370 ft 151 kts
2026-05-06 19:46 -31.46639 -52.02581 5371 ft 151 kts
2026-05-06 19:47 -31.45645 -52.02186 5369 ft 151 kts
2026-05-06 19:47 -31.44653 -52.01792 5370 ft 151 kts
2026-05-06 19:47 -31.43664 -52.01378 5360 ft 154 kts 16°
2026-05-06 19:47 -31.42789 -52.00587 5348 ft 161 kts 32°
2026-05-06 19:48 -31.41954 -51.99713 5345 ft 163 kts 38°
2026-05-06 19:48 -31.41239 -51.98662 5346 ft 164 kts 42°
2026-05-06 19:48 -31.40499 -51.97650 5345 ft 164 kts 40°
2026-05-06 19:48 -31.39760 -51.96637 5344 ft 164 kts 40°
2026-05-06 19:49 -31.39019 -51.95628 5343 ft 163 kts 40°
2026-05-06 19:49 -31.38277 -51.94623 5343 ft 163 kts 40°
2026-05-06 19:49 -31.37531 -51.93617 5340 ft 163 kts 40°
2026-05-06 19:49 -31.36796 -51.92625 5343 ft 163 kts 40°
2026-05-06 19:50 -31.36052 -51.91627 5342 ft 163 kts 40°
2026-05-06 19:50 -31.35308 -51.90627 5341 ft 163 kts 40°
2026-05-06 19:50 -31.34563 -51.89632 5340 ft 163 kts 40°
2026-05-06 19:50 -31.33814 -51.88634 5339 ft 163 kts 40°
2026-05-06 19:51 -31.33064 -51.87632 5343 ft 163 kts 40°
2026-05-06 19:51 -31.32316 -51.86637 5341 ft 163 kts 40°
2026-05-06 19:51 -31.31572 -51.85638 5343 ft 163 kts 40°
2026-05-06 19:51 -31.30826 -51.84643 5341 ft 162 kts 40°
2026-05-06 19:52 -31.30078 -51.83652 5343 ft 163 kts 40°
2026-05-06 19:52 -31.29327 -51.82660 5343 ft 163 kts 40°
2026-05-06 19:52 -31.28571 -51.81668 5342 ft 163 kts 40°
2026-05-06 19:52 -31.27816 -51.80674 5339 ft 164 kts 40°
2026-05-06 19:53 -31.27058 -51.79682 5340 ft 164 kts 40°
2026-05-06 19:53 -31.26297 -51.78685 5342 ft 164 kts 40°
2026-05-06 19:53 -31.25551 -51.77699 5337 ft 163 kts 40°
2026-05-06 19:53 -31.24797 -51.76713 5342 ft 163 kts 40°
2026-05-06 19:54 -31.24038 -51.75720 5342 ft 163 kts 40°
2026-05-06 19:54 -31.23282 -51.74731 5338 ft 163 kts 40°
2026-05-06 19:54 -31.22526 -51.73742 5338 ft 163 kts 40°
2026-05-06 19:54 -31.21772 -51.72754 5339 ft 163 kts 40°
2026-05-06 19:55 -31.21017 -51.71765 5342 ft 163 kts 40°
2026-05-06 19:55 -31.20520 -51.71112 5340 ft 162 kts 40°
2026-05-06 19:55 -31.19765 -51.70129 5338 ft 162 kts 40°
2026-05-06 19:55 -31.18771 -51.68835 5338 ft 161 kts 40°
2026-05-06 19:56 -31.18026 -51.67863 5335 ft 161 kts 40°
2026-05-06 19:56 -31.17281 -51.66885 5337 ft 161 kts 40°
2026-05-06 19:56 -31.16774 -51.66224 5335 ft 162 kts 40°
2026-05-06 19:56 -31.16021 -51.65242 5334 ft 162 kts 40°
2026-05-06 19:57 -31.15269 -51.64260 5334 ft 161 kts 40°
2026-05-06 19:57 -31.14532 -51.63298 5337 ft 161 kts 40°
2026-05-06 19:57 -31.13785 -51.62321 5334 ft 161 kts 40°
2026-05-06 19:57 -31.13035 -51.61347 5334 ft 162 kts 39°
2026-05-06 19:58 -31.12282 -51.60366 5332 ft 162 kts 40°
2026-05-06 19:58 -31.11533 -51.59386 5335 ft 162 kts 40°
2026-05-06 19:58 -31.10783 -51.58404 5335 ft 161 kts 40°
2026-05-06 19:58 -31.10034 -51.57431 5337 ft 161 kts 40°
2026-05-06 19:59 -31.09287 -51.56456 5336 ft 161 kts 39°
2026-05-06 19:59 -31.08540 -51.55477 5334 ft 161 kts 39°
2026-05-06 19:59 -31.07806 -51.54515 5329 ft 161 kts 39°
2026-05-06 19:59 -31.07064 -51.53537 5333 ft 161 kts 39°
2026-05-06 20:00 -31.06321 -51.52561 5334 ft 161 kts 40°
2026-05-06 20:00 -31.05577 -51.51581 5335 ft 162 kts 39°
2026-05-06 20:00 -31.04834 -51.50594 5332 ft 162 kts 39°
2026-05-06 20:00 -31.04096 -51.49610 5334 ft 161 kts 40°
2026-05-06 20:01 -31.03357 -51.48628 5333 ft 161 kts 39°
2026-05-06 20:01 -31.02613 -51.47646 5333 ft 161 kts 39°
2026-05-06 20:01 -31.01869 -51.46668 5334 ft 161 kts 39°
2026-05-06 20:01 -31.01125 -51.45685 5336 ft 162 kts 39°
2026-05-06 20:02 -31.00394 -51.44709 5334 ft 161 kts 39°
2026-05-06 20:02 -30.99635 -51.43760 5327 ft 156 kts 30°
2026-05-06 20:02 -30.98736 -51.43107 5321 ft 150 kts 17°
2026-05-06 20:02 -30.97799 -51.42582 5321 ft 149 kts 17°
2026-05-06 20:03 -30.96863 -51.42059 5323 ft 149 kts 16°
2026-05-06 20:03 -30.95928 -51.41527 5320 ft 150 kts 16°
2026-05-06 20:03 -30.94988 -51.40990 5318 ft 150 kts 16°
2026-05-06 20:03 -30.94047 -51.40453 5317 ft 150 kts 17°
2026-05-06 20:04 -30.93122 -51.39928 5318 ft 150 kts 16°
2026-05-06 20:04 -30.92184 -51.39395 5323 ft 150 kts 16°
2026-05-06 20:04 -30.91248 -51.38866 5317 ft 149 kts 16°
2026-05-06 20:04 -30.90314 -51.38341 5319 ft 149 kts 16°
2026-05-06 20:05 -30.89382 -51.37817 5317 ft 149 kts 16°
2026-05-06 20:05 -30.88446 -51.37289 5320 ft 149 kts 16°
2026-05-06 20:05 -30.87510 -51.36758 5322 ft 150 kts 16°
2026-05-06 20:05 -30.86572 -51.36227 5320 ft 150 kts 16°
2026-05-06 20:06 -30.85631 -51.35696 5322 ft 150 kts 16°
2026-05-06 20:06 -30.84690 -51.35164 5323 ft 150 kts 16°
2026-05-06 20:06 -30.83751 -51.34635 5324 ft 150 kts 16°
2026-05-06 20:06 -30.82821 -51.34111 5321 ft 150 kts 16°
2026-05-06 20:07 -30.81881 -51.33575 5320 ft 151 kts 16°
2026-05-06 20:07 -30.80941 -51.33039 5321 ft 150 kts 16°
2026-05-06 20:07 -30.79998 -51.32507 5322 ft 150 kts 16°
2026-05-06 20:07 -30.79058 -51.31978 5321 ft 150 kts 16°
2026-05-06 20:08 -30.78118 -51.31444 5321 ft 150 kts 16°
2026-05-06 20:08 -30.77178 -51.30914 5322 ft 150 kts 16°
2026-05-06 20:08 -30.76236 -51.30387 5323 ft 150 kts 16°
2026-05-06 20:08 -30.75291 -51.29862 5320 ft 150 kts 15°
2026-05-06 20:09 -30.74335 -51.29469 5319 ft 147 kts
2026-05-06 20:09 -30.73354 -51.29119 5316 ft 147 kts
2026-05-06 20:09 -30.72375 -51.28771 5315 ft 147 kts
2026-05-06 20:09 -30.71397 -51.28425 5318 ft 147 kts
2026-05-06 20:10 -30.70419 -51.28079 5316 ft 147 kts
2026-05-06 20:10 -30.69440 -51.27727 5315 ft 147 kts
2026-05-06 20:10 -30.68458 -51.27376 5315 ft 148 kts
2026-05-06 20:10 -30.67472 -51.27026 5316 ft 148 kts
2026-05-06 20:11 -30.66490 -51.26675 5316 ft 148 kts
2026-05-06 20:11 -30.65520 -51.26331 5313 ft 147 kts
2026-05-06 20:11 -30.64541 -51.25991 5314 ft 147 kts
2026-05-06 20:11 -30.63562 -51.25651 5489 ft 147 kts 17°
2026-05-06 20:12 -30.62538 -51.25413 5485 ft 153 kts
2026-05-06 20:12 -30.61473 -51.25228 5487 ft 156 kts
2026-05-06 20:12 -30.60389 -51.25039 5490 ft 158 kts
2026-05-06 20:12 -30.59300 -51.24849 5491 ft 159 kts
2026-05-06 20:13 -30.58210 -51.24656 5318 ft 157 kts
2026-05-06 20:13 -30.57163 -51.24349 5314 ft 153 kts
2026-05-06 20:13 -30.56146 -51.24008 5309 ft 151 kts
2026-05-06 20:13 -30.55145 -51.23672 5309 ft 149 kts
2026-05-06 20:14 -30.54152 -51.23340 5307 ft 149 kts
2026-05-06 20:14 -30.53169 -51.23011 5309 ft 149 kts
2026-05-06 20:14 -30.52175 -51.22677 5310 ft 149 kts
2026-05-06 20:14 -30.51179 -51.22342 5308 ft 149 kts
2026-05-06 20:15 -30.50185 -51.22010 5307 ft 149 kts
2026-05-06 20:15 -30.49193 -51.21677 5308 ft 148 kts
2026-05-06 20:15 -30.48204 -51.21345 5306 ft 148 kts
2026-05-06 20:15 -30.47213 -51.21020 5307 ft 148 kts
2026-05-06 20:16 -30.46218 -51.20694 5307 ft 149 kts
2026-05-06 20:16 -30.45223 -51.20367 5304 ft 148 kts
2026-05-06 20:16 -30.44228 -51.20043 5305 ft 149 kts
2026-05-06 20:16 -30.43229 -51.19720 5304 ft 149 kts
2026-05-06 20:17 -30.42244 -51.19402 5302 ft 149 kts
2026-05-06 20:17 -30.41249 -51.19076 5301 ft 148 kts
2026-05-06 20:17 -30.40253 -51.18751 5296 ft 149 kts
2026-05-06 20:17 -30.39236 -51.18487 5216 ft 150 kts
2026-05-06 20:18 -30.38199 -51.18276 5154 ft 152 kts
2026-05-06 20:18 -30.37152 -51.18063 5083 ft 153 kts
2026-05-06 20:18 -30.36104 -51.17908 5009 ft 151 kts 357°
2026-05-06 20:18 -30.35058 -51.17841 4938 ft 150 kts 356°
2026-05-06 20:19 -30.34008 -51.17774 4837 ft 152 kts 356°
2026-05-06 20:19 -30.32942 -51.17708 4692 ft 154 kts 356°
2026-05-06 20:19 -30.31867 -51.17645 4546 ft 155 kts 356°
2026-05-06 20:19 -30.30793 -51.17585 4398 ft 154 kts 356°
2026-05-06 20:20 -30.29728 -51.17528 4252 ft 155 kts 356°
2026-05-06 20:20 -30.28646 -51.17475 4075 ft 157 kts 356°
2026-05-06 20:20 -30.27550 -51.17431 3833 ft 158 kts 356°
2026-05-06 20:20 -30.26459 -51.17395 3597 ft 159 kts 356°
2026-05-06 20:21 -30.25347 -51.17364 3358 ft 160 kts 356°
2026-05-06 20:21 -30.24232 -51.17338 3075 ft 160 kts 356°
2026-05-06 20:21 -30.23246 -51.17310 2728 ft 128 kts 356°
2026-05-06 20:21 -30.22418 -51.17392 2369 ft 114 kts 349°
2026-05-06 20:22 -30.21658 -51.17510 2014 ft 107 kts 349°
2026-05-06 20:22 -30.20928 -51.17628 1663 ft 105 kts 349°
2026-05-06 20:22 -30.20214 -51.17557 1271 ft 111 kts 26°
2026-05-06 20:22 -30.19856 -51.16738 983 ft 115 kts 75°
2026-05-06 20:23 -30.19692 -51.15916 971 ft 100 kts 70°
2026-05-06 20:23 -30.19536 -51.15157 964 ft 94 kts 71°
2026-05-06 20:23 -30.19378 -51.14485 916 ft 82 kts 57°
2026-05-06 20:23 -30.18884 -51.14192 803 ft 79 kts 14°
2026-05-06 20:24 -30.18422 -51.14435 695 ft 75 kts 317°
2026-05-06 20:24 -30.18249 -51.14959 588 ft 83 kts 255°
2026-05-06 20:24 -30.18318 -51.15621 553 ft 88 kts 272°
2026-05-06 20:24 -30.18408 -51.16305 472 ft 78 kts 261°
2026-05-06 20:25 -30.18542 -51.16875 296 ft 75 kts 257°
2026-05-06 20:25 -30.18690 -51.17480 68 ft 79 kts 253°
2026-05-06 20:25 -30.18845 -51.18019 14 ft 63 kts 254°
2026-05-06 20:25 -30.18966 -51.18457 20 ft 41 kts 253°
2026-05-06 20:26 -30.18994 -51.18653 21 ft 16 kts 351°
2026-05-06 20:26 -30.18959 -51.18642 21 ft 0 kts 27°
2026-05-06 20:26 -30.18930 -51.18615 20 ft 11 kts 63°
2026-05-06 20:27 -30.18897 -51.18517 19 ft 14 kts 70°
2026-05-06 20:27 -30.18864 -51.18402 17 ft 17 kts 63°
2026-05-06 20:27 -30.18829 -51.18298 16 ft 13 kts 45°
2026-05-06 20:27 -30.18768 -51.18295 15 ft 0 kts 43°